Location: Duac?
(36.9744°N, 30.6500°E)
Time: 16:11:33
(UTC+00:00)

Lacrosse 5 - Pass Details

Date: 05 August 2024
Orbit: 714 x 724 km, 57.0° (Epoch: 09 March)

Event Time Altitude Azimuth Distance (km) Brightness Sun altitude
Rises 19:56:20 0° 307° (NW) 3,118 6.3 -28.6°
Reaches altitude 10° 19:58:59 10° 296° (WNW) 2,196 5.1 -28.9°
Enters shadow 20:02:28 27° 255° (WSW) 1,359 3.4 -29.3°
